リニア彗星

247P/LINEAR (2003)

English version
Home page
Updated on March 5, 2011

---------------------------------------------------------------------

・ プロフィール

符号 247P/2002 VP94
発見日 2002年11月5日
発見光度 18.8等
発見者 Lincoln Laboratory Near-Earth Asteroid Research project

・ 軌道要素

Epoch 2003 Jan. 1.0 TT = JDT 2452640.5
T 2003 Jan. 12.16293 TT                                 MPC
q   1.5196285            (2000.0)            P               Q
n   0.12294456     Peri.   44.13365     -0.17651391     -0.96383185
a   4.0055593      Node    57.01208     +0.82423928     -0.25562376
e   0.6206202      Incl.   13.77179     +0.53802644     +0.07539669
P   8.02
From 390 observations 2002 Nov. 5-2011 Jan. 3, mean residual 0".4.

・ 光度変化

        m1 = 14.0 + 5 logΔ + 22.0 log r(t - 30)

---------------------------------------------------------------------

軌道要素はM.P.E.C. 2011-A08に掲載されたものです。
光度グラフはComet for Windowsで作成したものです。

---------------------------------------------------------------------

Copyright(C) Seiichi Yoshida (comet@aerith.net). All rights reserved.